User: anonymous   Login
Location: Unspecified
(0.0000°N, 0.0000°E)
Time: 09:00:32
(UTC+00:00)
Language:

SBSS (USA 216) - Orbit

View from above orbital plane
View from above orbital plane
View from above satellite
View from above satellite

Ground track
Ground track

The orbit data is extracted from the following two-line orbital elements,

1 37168U 10048A   17227.86105638 0.00000100  00000-0  12798-4 0    09
2 37168  97.8856  91.7336 0004000  26.0230 333.9769 14.81415960    05
Epoch (UTC): 15 August 2017 20:39:55
Eccentricity: 0.0004000
inclination: 97.8856°
perigee height: 622 km
apogee height: 627 km
right ascension of ascending node: 91.7336°
argument of perigee: 26.0230°
revolutions per day: 14.81415960
mean anomaly at epoch: 333.9769°
orbit number at epoch: 0

The dashed part of the orbit path shows where the satellite is in the earth's shadow,  

DLR